Home > Weather > Patras > Past weeks

Flag for Greece Past Weather in Patras, Greece — Yesterday and Last 2 Weeks

Now
81 °F

Passing clouds.


Feels Like: 82 °F
Forecast: 58 / 88 °F
Wind: 3 mph from North

Location: Araxos Airport

Current Time: May 31, 2016 at 5:22:19 PM

Latest Report: May 31, 2016 at 4:50 PM


Visibility: N/A

Pressure: 29.98 "Hg

Humidity: 58%

Dew Point: 64 °F

Location of PatrasLocation

Past Weather in Patras — Graph

°F

Patras Temperature Yesterday

Maximum temperature yesterday: 86 °F (at 3:20 PM)
Minimum temperature yesterday: 59 °F (at 3:50 AM)
Average temperature yesterday: 75 °F

High & Low Weather Summary for the Past Weeks

 TemperatureHumidityPressure
High86 °F (May 30, 3:20 PM)100% (May 17, 5:50 AM)30.09 "Hg (May 17, 5:50 AM)
Low52 °F (May 17, 6:20 AM)31% (May 30, 3:50 PM)29.65 "Hg (May 21, 8:20 AM)
Average69 °F69%29.95 "Hg
* Reported May 16 3:20 PM — May 31 3:50 PM, Patras, Weather by CustomWeather, © 2016

Note: Actual official high and low records may vary slightly from our data, if they occured in-between our weather recording intervals... More about our weather records

Advertising

Patras Weather History for the Previous 24 Hours

Scroll right to see more
 ConditionsComfort  
Time TempWeatherWind HumidityBarometerVisibility
3:50 PM
Tue, May 31
82 °FPassing clouds.6 mph45%29.95 "HgN/A
3:20 PM81 °FPassing clouds.6 mph48%29.98 "HgN/A
2:50 PM81 °FPassing clouds.6 mph51%29.98 "HgN/A
2:20 PM81 °FPassing clouds.7 mph51%29.98 "HgN/A
1:50 PM79 °FPassing clouds.6 mph54%29.98 "HgN/A
1:20 PM79 °FPassing clouds.5 mph58%29.98 "HgN/A
12:50 PM82 °FPassing clouds.5 mph45%29.95 "HgN/A
12:20 PM81 °FPassing clouds.5 mph54%29.95 "HgN/A
11:50 AM79 °FPassing clouds.3 mph61%29.98 "HgN/A
11:20 AM79 °FPassing clouds.3 mph61%29.95 "HgN/A
10:50 AM79 °FPassing clouds.No wind65%29.95 "HgN/A
10:20 AM79 °FPassing clouds.No wind65%29.98 "HgN/A
9:50 AM77 °FPassing clouds.No wind69%29.95 "HgN/A
9:20 AM73 °FPassing clouds.No wind78%29.95 "HgN/A
8:50 AM73 °FPassing clouds.No wind83%29.95 "Hg6 mi
8:20 AM70 °FPassing clouds.No wind83%29.95 "Hg6 mi
7:50 AM64 °FPassing clouds.No wind94%29.95 "Hg6 mi
7:20 AM61 °FPassing clouds.No wind94%29.95 "Hg6 mi
6:50 AM61 °FClear.No wind94%29.92 "Hg10 mi
6:20 AM63 °FClear.No wind94%29.92 "Hg10 mi
5:50 AM61 °FClear.No wind94%29.92 "Hg10 mi
4:50 AM63 °FPassing clouds.No wind88%29.92 "HgN/A
2:50 AM68 °FClear.3 mph94%29.89 "Hg10 mi
1:50 AM68 °FClear.3 mph94%29.92 "Hg10 mi
12:50 AM66 °FClear.5 mph94%29.92 "Hg10 mi
11:50 PM
Mon, May 30
68 °FClear.No wind88%29.92 "Hg10 mi
10:50 PM70 °FClear.No wind88%29.92 "Hg10 mi
9:50 PM72 °FClear.No wind78%29.89 "Hg10 mi
8:50 PM75 °FSunny.No wind50%29.89 "Hg10 mi
8:20 PM79 °FSunny.No wind42%29.89 "Hg10 mi
7:50 PM81 °FSunny.3 mph37%29.89 "Hg10 mi
7:20 PM82 °FPassing clouds.No wind37%29.89 "HgN/A
6:50 PM84 °FPassing clouds.No wind35%29.89 "HgN/A
6:20 PM84 °FPassing clouds.3 mph33%29.89 "HgN/A
5:50 PM86 °FPassing clouds.3 mph31%29.89 "HgN/A
5:20 PM84 °FSunny.5 mph35%29.89 "Hg10 mi
Weather by CustomWeather, © 2016

See weather overviewHow to use our weather pages